contact:dominique.lefevre@mio.osupytheas.fr, maurice.libes@osupytheas.fr, didier.mallarino@osupytheas.fr
Project:EMSO http://www.emso-fr.org/EMSO-France
Depth: 2436.0 m
Title:EMSO Ligure Ouest : Data MII capteur OXYGEN
DateTime,Latitude,Longitude,Optode-Type,Optode_Serial,Oxygen,Saturation_Oxygen,Temperature
DateTime,Latitude,Longitude,Optode-Type,Optode_Serial,µmol.l-1,%,degC
2019-07-26T00:02:37,42.805,6.029,4330,1995,192.613,58.906,13.290
2019-07-26T00:05:37,42.805,6.029,4330,1995,192.648,58.917,13.290
2019-07-26T00:08:37,42.805,6.029,4330,1995,192.605,58.904,13.290
2019-07-26T00:11:37,42.805,6.029,4330,1995,192.577,58.894,13.289
2019-07-26T00:14:37,42.805,6.029,4330,1995,192.578,58.896,13.291
2019-07-26T00:17:37,42.805,6.029,4330,1995,192.622,58.908,13.289
2019-07-26T00:20:37,42.805,6.029,4330,1995,192.641,58.915,13.290
2019-07-26T00:23:37,42.805,6.029,4330,1995,192.573,58.894,13.290
2019-07-26T00:26:37,42.805,6.029,4330,1995,192.563,58.891,13.290
2019-07-26T00:29:37,42.805,6.029,4330,1995,192.608,58.906,13.291
2019-07-26T00:32:37,42.805,6.029,4330,1995,192.576,58.895,13.290
2019-07-26T00:35:37,42.805,6.029,4330,1995,192.615,58.906,13.290
2019-07-26T00:38:37,42.805,6.029,4330,1995,192.590,58.898,13.289
2019-07-26T00:41:37,42.805,6.029,4330,1995,192.635,58.913,13.290
2019-07-26T00:44:37,42.805,6.029,4330,1995,192.559,58.890,13.290
2019-07-26T00:50:37,42.805,6.029,4330,1995,192.654,58.918,13.289
2019-07-26T00:53:37,42.805,6.029,4330,1995,192.670,58.922,13.289
2019-07-26T00:56:37,42.805,6.029,4330,1995,192.635,58.912,13.289
2019-07-26T00:59:37,42.805,6.029,4330,1995,192.601,58.902,13.289
2019-07-26T01:02:37,42.805,6.029,4330,1995,192.589,58.898,13.290
2019-07-26T01:05:37,42.805,6.029,4330,1995,192.600,58.900,13.289
2019-07-26T01:08:37,42.805,6.029,4330,1995,192.607,58.903,13.289
2019-07-26T01:11:37,42.805,6.029,4330,1995,192.654,58.918,13.290
2019-07-26T01:14:37,42.805,6.029,4330,1995,192.619,58.907,13.289
2019-07-26T01:17:37,42.805,6.029,4330,1995,192.639,58.916,13.291
2019-07-26T01:20:37,42.805,6.029,4330,1995,192.631,58.912,13.290
2019-07-26T01:23:37,42.805,6.029,4330,1995,192.616,58.907,13.290
2019-07-26T01:26:37,42.805,6.029,4330,1995,192.654,58.918,13.289
2019-07-26T01:29:37,42.805,6.029,4330,1995,192.665,58.922,13.290
2019-07-26T01:32:37,42.805,6.029,4330,1995,192.636,58.912,13.289
2019-07-26T01:35:37,42.805,6.029,4330,1995,192.706,58.935,13.290
2019-07-26T01:38:37,42.805,6.029,4330,1995,192.663,58.922,13.290
2019-07-26T01:41:37,42.805,6.029,4330,1995,192.736,58.944,13.290
2019-07-26T01:44:37,42.805,6.029,4330,1995,192.648,58.916,13.289
2019-07-26T01:47:37,42.805,6.029,4330,1995,192.688,58.930,13.290
2019-07-26T01:50:37,42.805,6.029,4330,1995,192.674,58.925,13.290
2019-07-26T01:53:37,42.805,6.029,4330,1995,192.650,58.919,13.291
2019-07-26T01:56:37,42.805,6.029,4330,1995,192.689,58.929,13.290
2019-07-26T01:59:37,42.805,6.029,4330,1995,192.673,58.927,13.292
2019-07-26T02:02:37,42.805,6.029,4330,1995,192.681,58.928,13.290
2019-07-26T02:05:37,42.805,6.029,4330,1995,192.697,58.934,13.291
2019-07-26T02:08:37,42.805,6.029,4330,1995,192.609,58.906,13.291
2019-07-26T02:11:37,42.805,6.029,4330,1995,192.674,58.925,13.290
2019-07-26T02:14:37,42.805,6.029,4330,1995,192.656,58.920,13.291
2019-07-26T02:17:37,42.805,6.029,4330,1995,192.673,58.926,13.291
2019-07-26T02:20:37,42.805,6.029,4330,1995,192.699,58.933,13.291
2019-07-26T02:23:37,42.805,6.029,4330,1995,192.618,58.910,13.291
2019-07-26T02:26:37,42.805,6.029,4330,1995,192.555,58.890,13.291
2019-07-26T02:29:37,42.805,6.029,4330,1995,192.574,58.894,13.290
2019-07-26T02:32:37,42.805,6.029,4330,1995,192.661,58.921,13.290
2019-07-26T02:35:37,42.805,6.029,4330,1995,192.616,58.908,13.290
2019-07-26T02:38:37,42.805,6.029,4330,1995,192.673,58.925,13.290
2019-07-26T02:41:37,42.805,6.029,4330,1995,192.685,58.929,13.290
2019-07-26T02:44:37,42.805,6.029,4330,1995,192.637,58.913,13.290
2019-07-26T02:47:37,42.805,6.029,4330,1995,192.694,58.931,13.289
2019-07-26T02:50:37,42.805,6.029,4330,1995,192.684,58.928,13.290
2019-07-26T02:53:37,42.805,6.029,4330,1995,192.716,58.938,13.290
2019-07-26T02:56:37,42.805,6.029,4330,1995,192.657,58.920,13.290
2019-07-26T02:59:37,42.805,6.029,4330,1995,192.631,58.911,13.290
2019-07-26T03:02:37,42.805,6.029,4330,1995,192.621,58.909,13.290
2019-07-26T03:05:37,42.805,6.029,4330,1995,192.622,58.909,13.290
2019-07-26T03:08:37,42.805,6.029,4330,1995,192.674,58.924,13.289
2019-07-26T03:11:37,42.805,6.029,4330,1995,192.633,58.912,13.290
2019-07-26T03:14:37,42.805,6.029,4330,1995,192.647,58.915,13.289
2019-07-26T03:17:37,42.805,6.029,4330,1995,192.711,58.936,13.290
2019-07-26T03:20:37,42.805,6.029,4330,1995,192.667,58.922,13.289
2019-07-26T03:26:37,42.805,6.029,4330,1995,192.714,58.934,13.287
2019-07-26T03:29:37,42.805,6.029,4330,1995,192.699,58.933,13.290
2019-07-26T03:32:37,42.805,6.029,4330,1995,192.747,58.947,13.290
2019-07-26T03:35:37,42.805,6.029,4330,1995,192.637,58.915,13.291
2019-07-26T03:38:37,42.805,6.029,4330,1995,192.742,58.946,13.290
2019-07-26T03:41:37,42.805,6.029,4330,1995,192.653,58.919,13.291
2019-07-26T03:44:37,42.805,6.029,4330,1995,192.690,58.930,13.290
2019-07-26T03:47:37,42.805,6.029,4330,1995,192.699,58.933,13.290
2019-07-26T03:50:37,42.805,6.029,4330,1995,192.738,58.944,13.290
2019-07-26T03:53:37,42.805,6.029,4330,1995,192.648,58.917,13.290
2019-07-26T03:56:37,42.805,6.029,4330,1995,192.747,58.947,13.290
2019-07-26T03:59:37,42.805,6.029,4330,1995,192.700,58.932,13.289
2019-07-26T04:02:37,42.805,6.029,4330,1995,192.799,58.962,13.289
2019-07-26T04:05:37,42.805,6.029,4330,1995,192.760,58.949,13.289
2019-07-26T04:08:37,42.805,6.029,4330,1995,192.777,58.956,13.290
2019-07-26T04:11:37,42.805,6.029,4330,1995,192.705,58.934,13.290
2019-07-26T04:14:37,42.805,6.029,4330,1995,192.677,58.925,13.289
2019-07-26T04:17:37,42.805,6.029,4330,1995,192.751,58.947,13.289
2019-07-26T04:20:37,42.805,6.029,4330,1995,192.714,58.936,13.289
2019-07-26T04:23:37,42.805,6.029,4330,1995,192.701,58.932,13.289
2019-07-26T04:26:37,42.805,6.029,4330,1995,192.725,58.939,13.289
2019-07-26T04:29:37,42.805,6.029,4330,1995,192.630,58.910,13.289
2019-07-26T04:32:37,42.805,6.029,4330,1995,192.718,58.936,13.288
2019-07-26T04:35:37,42.805,6.029,4330,1995,192.752,58.947,13.288
2019-07-26T04:38:37,42.805,6.029,4330,1995,192.768,58.951,13.288
2019-07-26T04:41:37,42.805,6.029,4330,1995,192.787,58.958,13.289
2019-07-26T04:44:37,42.805,6.029,4330,1995,192.759,58.949,13.288
2019-07-26T04:47:37,42.805,6.029,4330,1995,192.716,58.936,13.289
2019-07-26T04:50:37,42.805,6.029,4330,1995,192.816,58.968,13.289
2019-07-26T04:53:37,42.805,6.029,4330,1995,192.732,58.941,13.288
2019-07-26T04:56:37,42.805,6.029,4330,1995,192.689,58.928,13.289
2019-07-26T04:59:37,42.805,6.029,4330,1995,192.720,58.939,13.290
2019-07-26T05:02:37,42.805,6.029,4330,1995,192.716,58.936,13.289
2019-07-26T05:05:37,42.805,6.029,4330,1995,192.741,58.944,13.289
2019-07-26T05:08:37,42.805,6.029,4330,1995,192.755,58.949,13.289
2019-07-26T05:11:37,42.805,6.029,4330,1995,192.800,58.962,13.289
2019-07-26T05:14:37,42.805,6.029,4330,1995,192.808,58.965,13.289
2019-07-26T05:17:37,42.805,6.029,4330,1995,192.744,58.945,13.289
2019-07-26T05:20:37,42.805,6.029,4330,1995,192.764,58.952,13.289
2019-07-26T05:23:36,42.805,6.029,4330,1995,192.800,58.963,13.290
2019-07-26T05:26:36,42.805,6.029,4330,1995,192.763,58.952,13.290
2019-07-26T05:29:36,42.805,6.029,4330,1995,192.759,58.951,13.290
2019-07-26T05:32:36,42.805,6.029,4330,1995,192.803,58.965,13.290
2019-07-26T05:35:36,42.805,6.029,4330,1995,192.821,58.971,13.291
2019-07-26T05:38:36,42.805,6.029,4330,1995,192.739,58.946,13.290
2019-07-26T05:41:36,42.805,6.029,4330,1995,192.826,58.971,13.289
2019-07-26T05:44:36,42.805,6.029,4330,1995,192.756,58.950,13.290
2019-07-26T05:47:36,42.805,6.029,4330,1995,192.798,58.963,13.290
2019-07-26T05:50:36,42.805,6.029,4330,1995,192.765,58.952,13.290
2019-07-26T05:53:36,42.805,6.029,4330,1995,192.742,58.946,13.290
2019-07-26T06:02:36,42.805,6.029,4330,1995,192.787,58.956,13.287
2019-07-26T06:05:36,42.805,6.029,4330,1995,192.751,58.948,13.289
2019-07-26T06:08:36,42.805,6.029,4330,1995,192.765,58.953,13.290
2019-07-26T06:11:36,42.805,6.029,4330,1995,192.720,58.939,13.290
2019-07-26T06:14:36,42.805,6.029,4330,1995,192.782,58.957,13.289
2019-07-26T06:17:36,42.805,6.029,4330,1995,192.686,58.929,13.290
2019-07-26T06:20:36,42.805,6.029,4330,1995,192.687,58.930,13.290
2019-07-26T06:23:36,42.805,6.029,4330,1995,192.650,58.918,13.290
2019-07-26T06:26:36,42.805,6.029,4330,1995,192.722,58.940,13.290
2019-07-26T06:29:36,42.805,6.029,4330,1995,192.688,58.930,13.290
2019-07-26T06:32:36,42.805,6.029,4330,1995,192.785,58.958,13.289
2019-07-26T06:35:36,42.805,6.029,4330,1995,192.737,58.944,13.290
2019-07-26T06:38:36,42.805,6.029,4330,1995,192.742,58.946,13.290
2019-07-26T06:41:36,42.805,6.029,4330,1995,192.717,58.939,13.291
2019-07-26T06:44:36,42.805,6.029,4330,1995,192.636,58.914,13.290
2019-07-26T06:47:36,42.805,6.029,4330,1995,192.722,58.941,13.291
2019-07-26T06:50:36,42.805,6.029,4330,1995,192.697,58.933,13.291
2019-07-26T06:53:36,42.805,6.029,4330,1995,192.795,58.961,13.289
2019-07-26T06:56:36,42.805,6.029,4330,1995,192.717,58.939,13.290
2019-07-26T06:59:36,42.805,6.029,4330,1995,192.724,58.941,13.291
2019-07-26T07:02:36,42.805,6.029,4330,1995,192.773,58.955,13.290
2019-07-26T07:05:36,42.805,6.029,4330,1995,192.711,58.935,13.289
2019-07-26T07:08:36,42.805,6.029,4330,1995,192.677,58.926,13.290
2019-07-26T07:11:36,42.805,6.029,4330,1995,192.698,58.931,13.289
2019-07-26T07:14:36,42.805,6.029,4330,1995,192.656,58.918,13.289
2019-07-26T07:17:36,42.805,6.029,4330,1995,192.702,58.933,13.289
2019-07-26T07:20:36,42.805,6.029,4330,1995,192.802,58.963,13.289
2019-07-26T07:23:36,42.805,6.029,4330,1995,192.772,58.954,13.289
2019-07-26T07:26:36,42.805,6.029,4330,1995,192.762,58.952,13.290
2019-07-26T07:29:36,42.805,6.029,4330,1995,192.747,58.946,13.289
2019-07-26T07:32:36,42.805,6.029,4330,1995,192.769,58.952,13.289
2019-07-26T07:35:36,42.805,6.029,4330,1995,192.751,58.947,13.289
2019-07-26T07:38:36,42.805,6.029,4330,1995,192.784,58.957,13.289
2019-07-26T07:41:36,42.805,6.029,4330,1995,192.716,58.936,13.289
2019-07-26T07:44:36,42.805,6.029,4330,1995,192.707,58.933,13.288
2019-07-26T07:47:36,42.805,6.029,4330,1995,192.718,58.938,13.289
2019-07-26T07:50:36,42.805,6.029,4330,1995,192.710,58.935,13.289
2019-07-26T07:53:36,42.805,6.029,4330,1995,192.759,58.949,13.288
2019-07-26T07:56:36,42.805,6.029,4330,1995,192.679,58.925,13.289
2019-07-26T07:59:36,42.805,6.029,4330,1995,192.785,58.958,13.289
2019-07-26T08:02:36,42.805,6.029,4330,1995,192.641,58.914,13.290
2019-07-26T08:05:36,42.805,6.029,4330,1995,192.663,58.919,13.288
2019-07-26T08:08:36,42.805,6.029,4330,1995,192.680,58.925,13.289
2019-07-26T08:11:36,42.805,6.029,4330,1995,192.666,58.921,13.289
2019-07-26T08:14:36,42.805,6.029,4330,1995,192.645,58.915,13.289
2019-07-26T08:17:36,42.805,6.029,4330,1995,192.776,58.955,13.289
2019-07-26T08:20:36,42.805,6.029,4330,1995,192.809,58.964,13.288
2019-07-26T08:23:36,42.805,6.029,4330,1995,192.852,58.977,13.288
2019-07-26T08:26:36,42.805,6.029,4330,1995,192.862,58.981,13.289
2019-07-26T08:29:36,42.805,6.029,4330,1995,192.899,58.993,13.289
2019-07-26T08:35:36,42.805,6.029,4330,1995,192.936,59.002,13.287
2019-07-26T08:38:36,42.805,6.029,4330,1995,192.931,59.000,13.287
2019-07-26T08:41:36,42.805,6.029,4330,1995,192.939,59.003,13.288
2019-07-26T08:44:36,42.805,6.029,4330,1995,192.909,58.995,13.288
2019-07-26T08:47:36,42.805,6.029,4330,1995,192.921,58.998,13.288
2019-07-26T08:50:36,42.805,6.029,4330,1995,192.855,58.978,13.288
2019-07-26T08:53:36,42.805,6.029,4330,1995,192.877,58.985,13.288
2019-07-26T08:56:36,42.805,6.029,4330,1995,192.897,58.991,13.288
2019-07-26T08:59:36,42.805,6.029,4330,1995,192.895,58.990,13.288
2019-07-26T09:02:36,42.805,6.029,4330,1995,192.909,58.995,13.289
2019-07-26T09:05:36,42.805,6.029,4330,1995,192.978,59.016,13.289
2019-07-26T09:08:36,42.805,6.029,4330,1995,193.013,59.026,13.288
2019-07-26T09:11:36,42.805,6.029,4330,1995,193.053,59.039,13.289
2019-07-26T09:14:36,42.805,6.029,4330,1995,192.959,59.010,13.288
2019-07-26T09:17:36,42.805,6.029,4330,1995,192.995,59.022,13.289
2019-07-26T09:20:36,42.805,6.029,4330,1995,193.012,59.027,13.289
2019-07-26T09:23:36,42.805,6.029,4330,1995,192.981,59.017,13.289
2019-07-26T09:26:36,42.805,6.029,4330,1995,193.000,59.023,13.289
2019-07-26T09:29:36,42.805,6.029,4330,1995,192.997,59.022,13.289
2019-07-26T09:32:36,42.805,6.029,4330,1995,193.040,59.036,13.289
2019-07-26T09:35:36,42.805,6.029,4330,1995,193.000,59.024,13.289
2019-07-26T09:38:36,42.805,6.029,4330,1995,193.049,59.039,13.289
2019-07-26T09:41:36,42.805,6.029,4330,1995,192.944,59.007,13.289
2019-07-26T09:44:36,42.805,6.029,4330,1995,192.992,59.021,13.289
2019-07-26T09:47:36,42.805,6.029,4330,1995,193.001,59.024,13.289
2019-07-26T09:50:36,42.805,6.029,4330,1995,193.029,59.033,13.290
2019-07-26T09:53:36,42.805,6.029,4330,1995,193.038,59.035,13.289
2019-07-26T09:56:36,42.805,6.029,4330,1995,193.072,59.046,13.290
2019-07-26T09:59:36,42.805,6.029,4330,1995,193.038,59.036,13.289
2019-07-26T10:02:36,42.805,6.029,4330,1995,192.992,59.023,13.290
2019-07-26T10:05:36,42.805,6.029,4330,1995,193.082,59.050,13.290
2019-07-26T10:08:36,42.805,6.029,4330,1995,193.096,59.054,13.290
2019-07-26T10:11:36,42.805,6.029,4330,1995,193.043,59.038,13.290
2019-07-26T10:14:36,42.805,6.029,4330,1995,193.061,59.043,13.290
2019-07-26T10:17:36,42.805,6.029,4330,1995,193.041,59.037,13.290
2019-07-26T10:20:36,42.805,6.029,4330,1995,193.116,59.060,13.290
2019-07-26T10:23:36,42.805,6.029,4330,1995,193.077,59.048,13.290
2019-07-26T10:26:36,42.805,6.029,4330,1995,193.086,59.051,13.290
2019-07-26T10:29:36,42.805,6.029,4330,1995,193.075,59.048,13.290
2019-07-26T10:32:36,42.805,6.029,4330,1995,193.114,59.060,13.291
2019-07-26T10:35:36,42.805,6.029,4330,1995,193.120,59.060,13.289
2019-07-26T10:38:36,42.805,6.029,4330,1995,193.085,59.050,13.290
2019-07-26T10:41:36,42.805,6.029,4330,1995,193.161,59.073,13.289
2019-07-26T10:44:36,42.805,6.029,4330,1995,193.172,59.076,13.289
2019-07-26T10:47:36,42.805,6.029,4330,1995,193.119,59.060,13.289
2019-07-26T10:50:36,42.805,6.029,4330,1995,193.172,59.076,13.289
2019-07-26T10:53:36,42.805,6.029,4330,1995,193.153,59.071,13.289
2019-07-26T10:56:36,42.805,6.029,4330,1995,193.134,59.064,13.289
2019-07-26T10:59:36,42.805,6.029,4330,1995,193.141,59.067,13.289
2019-07-26T11:02:36,42.805,6.029,4330,1995,193.131,59.064,13.289
2019-07-26T11:05:36,42.805,6.029,4330,1995,193.102,59.055,13.289
2019-07-26T11:11:36,42.805,6.029,4330,1995,193.087,59.049,13.288
2019-07-26T11:14:36,42.805,6.029,4330,1995,193.170,59.076,13.290
2019-07-26T11:17:36,42.805,6.029,4330,1995,193.154,59.072,13.290
2019-07-26T11:20:36,42.805,6.029,4330,1995,193.103,59.056,13.290
2019-07-26T11:23:36,42.805,6.029,4330,1995,193.119,59.061,13.290
2019-07-26T11:26:36,42.805,6.029,4330,1995,193.139,59.067,13.290
2019-07-26T11:29:36,42.805,6.029,4330,1995,193.123,59.062,13.290
2019-07-26T11:32:36,42.805,6.029,4330,1995,193.144,59.067,13.289
2019-07-26T11:35:36,42.805,6.029,4330,1995,193.206,59.086,13.289
2019-07-26T11:38:36,42.805,6.029,4330,1995,193.289,59.112,13.289
2019-07-26T11:41:36,42.805,6.029,4330,1995,193.328,59.125,13.290
2019-07-26T11:44:36,42.805,6.029,4330,1995,193.231,59.095,13.289
2019-07-26T11:47:36,42.805,6.029,4330,1995,193.277,59.108,13.289
2019-07-26T11:50:36,42.805,6.029,4330,1995,193.346,59.129,13.289
2019-07-26T11:53:36,42.805,6.029,4330,1995,193.319,59.121,13.289
2019-07-26T11:56:36,42.805,6.029,4330,1995,193.280,59.109,13.289
2019-07-26T11:59:36,42.805,6.029,4330,1995,193.307,59.117,13.289
2019-07-26T12:02:36,42.805,6.029,4330,1995,193.299,59.114,13.289
2019-07-26T12:05:36,42.805,6.029,4330,1995,193.305,59.116,13.288
2019-07-26T12:08:36,42.805,6.029,4330,1995,193.284,59.110,13.288
2019-07-26T12:11:36,42.805,6.029,4330,1995,193.308,59.118,13.289
2019-07-26T12:14:36,42.805,6.029,4330,1995,193.320,59.121,13.289
2019-07-26T12:17:36,42.805,6.029,4330,1995,193.367,59.136,13.289
2019-07-26T12:20:36,42.805,6.029,4330,1995,193.371,59.136,13.289
2019-07-26T12:23:36,42.805,6.029,4330,1995,193.398,59.145,13.288
2019-07-26T12:26:36,42.805,6.029,4330,1995,193.364,59.134,13.288
2019-07-26T12:29:36,42.805,6.029,4330,1995,193.444,59.158,13.288
2019-07-26T12:32:36,42.805,6.029,4330,1995,193.436,59.157,13.289
2019-07-26T12:35:36,42.805,6.029,4330,1995,193.366,59.135,13.289
2019-07-26T12:38:36,42.805,6.029,4330,1995,193.445,59.160,13.289
2019-07-26T12:41:36,42.805,6.029,4330,1995,193.377,59.139,13.289
2019-07-26T12:44:36,42.805,6.029,4330,1995,193.395,59.145,13.290
2019-07-26T12:47:36,42.805,6.029,4330,1995,193.388,59.142,13.289
2019-07-26T12:50:36,42.805,6.029,4330,1995,193.420,59.152,13.289
2019-07-26T12:53:36,42.805,6.029,4330,1995,193.417,59.152,13.289
2019-07-26T12:56:36,42.805,6.029,4330,1995,193.388,59.144,13.290
2019-07-26T12:59:36,42.805,6.029,4330,1995,193.381,59.140,13.289
2019-07-26T13:02:36,42.805,6.029,4330,1995,193.430,59.155,13.289
2019-07-26T13:05:36,42.805,6.029,4330,1995,193.373,59.139,13.291
2019-07-26T13:08:36,42.805,6.029,4330,1995,193.348,59.131,13.290
2019-07-26T13:11:36,42.805,6.029,4330,1995,193.412,59.150,13.289
2019-07-26T13:14:36,42.805,6.029,4330,1995,193.442,59.159,13.289
2019-07-26T13:17:36,42.805,6.029,4330,1995,193.444,59.160,13.290
2019-07-26T13:20:36,42.805,6.029,4330,1995,193.376,59.139,13.290
2019-07-26T13:23:36,42.805,6.029,4330,1995,193.388,59.143,13.289
2019-07-26T13:26:36,42.805,6.029,4330,1995,193.400,59.147,13.290
2019-07-26T13:29:36,42.805,6.029,4330,1995,193.396,59.145,13.290
2019-07-26T13:32:36,42.805,6.029,4330,1995,193.436,59.158,13.290
2019-07-26T13:35:36,42.805,6.029,4330,1995,193.421,59.154,13.290
2019-07-26T13:38:36,42.805,6.029,4330,1995,193.405,59.149,13.290
2019-07-26T13:47:36,42.805,6.029,4330,1995,193.366,59.133,13.287
2019-07-26T13:50:36,42.805,6.029,4330,1995,193.392,59.144,13.290
2019-07-26T13:53:36,42.805,6.029,4330,1995,193.397,59.145,13.289
2019-07-26T13:56:36,42.805,6.029,4330,1995,193.358,59.133,13.289
2019-07-26T13:59:36,42.805,6.029,4330,1995,193.369,59.138,13.290
2019-07-26T14:02:36,42.805,6.029,4330,1995,193.362,59.136,13.290
2019-07-26T14:05:36,42.805,6.029,4330,1995,193.358,59.134,13.290
2019-07-26T14:08:36,42.805,6.029,4330,1995,193.303,59.117,13.290
2019-07-26T14:11:36,42.805,6.029,4330,1995,193.370,59.138,13.290
2019-07-26T14:14:36,42.805,6.029,4330,1995,193.354,59.134,13.290
2019-07-26T14:17:36,42.805,6.029,4330,1995,193.393,59.144,13.290
2019-07-26T14:20:36,42.805,6.029,4330,1995,193.315,59.121,13.290
2019-07-26T14:23:36,42.805,6.029,4330,1995,193.342,59.130,13.290
2019-07-26T14:26:36,42.805,6.029,4330,1995,193.377,59.140,13.290
2019-07-26T14:29:36,42.805,6.029,4330,1995,193.388,59.143,13.290
2019-07-26T14:32:36,42.805,6.029,4330,1995,193.390,59.144,13.290
2019-07-26T14:35:36,42.805,6.029,4330,1995,193.379,59.141,13.290
2019-07-26T14:38:36,42.805,6.029,4330,1995,193.326,59.125,13.290
2019-07-26T14:41:36,42.805,6.029,4330,1995,193.376,59.140,13.290
2019-07-26T14:44:36,42.805,6.029,4330,1995,193.321,59.124,13.291
2019-07-26T14:47:36,42.805,6.029,4330,1995,193.362,59.136,13.290
2019-07-26T14:50:36,42.805,6.029,4330,1995,193.379,59.141,13.290
2019-07-26T14:53:36,42.805,6.029,4330,1995,193.296,59.116,13.291
2019-07-26T14:56:36,42.805,6.029,4330,1995,193.353,59.133,13.290
2019-07-26T14:59:36,42.805,6.029,4330,1995,193.342,59.129,13.289
2019-07-26T15:02:36,42.805,6.029,4330,1995,193.354,59.132,13.290
2019-07-26T15:05:36,42.805,6.029,4330,1995,193.270,59.107,13.290
2019-07-26T15:08:36,42.805,6.029,4330,1995,193.385,59.141,13.289
2019-07-26T15:11:36,42.805,6.029,4330,1995,193.344,59.129,13.289
2019-07-26T15:14:36,42.805,6.029,4330,1995,193.324,59.124,13.290
2019-07-26T15:17:36,42.805,6.029,4330,1995,193.343,59.129,13.290
2019-07-26T15:20:36,42.805,6.029,4330,1995,193.314,59.119,13.289
2019-07-26T15:23:36,42.805,6.029,4330,1995,193.272,59.106,13.289
2019-07-26T15:26:36,42.805,6.029,4330,1995,193.302,59.115,13.289
2019-07-26T15:29:36,42.805,6.029,4330,1995,193.336,59.125,13.289
2019-07-26T15:32:36,42.805,6.029,4330,1995,193.336,59.125,13.289
2019-07-26T15:35:36,42.805,6.029,4330,1995,193.317,59.121,13.289
2019-07-26T15:38:36,42.805,6.029,4330,1995,193.327,59.124,13.290
2019-07-26T15:41:36,42.805,6.029,4330,1995,193.291,59.112,13.289
2019-07-26T15:44:36,42.805,6.029,4330,1995,193.308,59.117,13.288
2019-07-26T15:47:36,42.805,6.029,4330,1995,193.296,59.115,13.290
2019-07-26T15:50:36,42.805,6.029,4330,1995,193.324,59.124,13.290
2019-07-26T15:53:36,42.805,6.029,4330,1995,193.309,59.118,13.289
2019-07-26T15:56:36,42.805,6.029,4330,1995,193.304,59.116,13.289
2019-07-26T15:59:36,42.805,6.029,4330,1995,193.351,59.131,13.289
2019-07-26T16:02:36,42.805,6.029,4330,1995,193.299,59.116,13.290
2019-07-26T16:05:36,42.805,6.029,4330,1995,193.340,59.127,13.289
2019-07-26T16:08:36,42.805,6.029,4330,1995,193.345,59.130,13.289
2019-07-26T16:11:36,42.805,6.029,4330,1995,193.252,59.101,13.289
2019-07-26T16:14:36,42.805,6.029,4330,1995,193.322,59.123,13.290
2019-07-26T16:20:36,42.805,6.029,4330,1995,193.196,59.086,13.291
2019-07-26T16:23:36,42.805,6.029,4330,1995,193.224,59.090,13.288
2019-07-26T16:26:36,42.805,6.029,4330,1995,193.282,59.109,13.289
2019-07-26T16:29:36,42.805,6.029,4330,1995,193.257,59.102,13.289
2019-07-26T16:32:36,42.805,6.029,4330,1995,193.246,59.099,13.289
2019-07-26T16:35:36,42.805,6.029,4330,1995,193.287,59.110,13.288
2019-07-26T16:38:36,42.805,6.029,4330,1995,193.251,59.100,13.289
2019-07-26T16:41:36,42.805,6.029,4330,1995,193.276,59.107,13.288
2019-07-26T16:44:36,42.805,6.029,4330,1995,193.221,59.091,13.289
2019-07-26T16:47:36,42.805,6.029,4330,1995,193.236,59.096,13.289
2019-07-26T16:50:36,42.805,6.029,4330,1995,193.251,59.100,13.289
2019-07-26T16:53:36,42.805,6.029,4330,1995,193.186,59.081,13.289
2019-07-26T16:56:36,42.805,6.029,4330,1995,193.157,59.072,13.290
2019-07-26T16:59:36,42.805,6.029,4330,1995,193.120,59.060,13.289
2019-07-26T17:02:36,42.805,6.029,4330,1995,193.104,59.056,13.290
2019-07-26T17:05:36,42.805,6.029,4330,1995,193.146,59.069,13.290
2019-07-26T17:08:36,42.805,6.029,4330,1995,193.137,59.066,13.290
2019-07-26T17:11:36,42.805,6.029,4330,1995,193.135,59.066,13.290
2019-07-26T17:14:36,42.805,6.029,4330,1995,193.164,59.074,13.289
2019-07-26T17:17:36,42.805,6.029,4330,1995,193.143,59.068,13.289
2019-07-26T17:20:36,42.805,6.029,4330,1995,193.143,59.068,13.290
2019-07-26T17:23:36,42.805,6.029,4330,1995,193.092,59.053,13.290
2019-07-26T17:26:36,42.805,6.029,4330,1995,193.089,59.052,13.290
2019-07-26T17:29:36,42.805,6.029,4330,1995,193.056,59.042,13.290
2019-07-26T17:32:36,42.805,6.029,4330,1995,193.129,59.064,13.290
2019-07-26T17:35:36,42.805,6.029,4330,1995,193.050,59.041,13.290
2019-07-26T17:38:36,42.805,6.029,4330,1995,193.015,59.028,13.289
2019-07-26T17:41:36,42.805,6.029,4330,1995,192.963,59.014,13.291
2019-07-26T17:44:36,42.805,6.029,4330,1995,193.041,59.038,13.290
2019-07-26T17:47:36,42.805,6.029,4330,1995,193.071,59.046,13.290
2019-07-26T17:50:36,42.805,6.029,4330,1995,193.017,59.032,13.291
2019-07-26T17:53:36,42.805,6.029,4330,1995,193.008,59.027,13.290
2019-07-26T17:56:36,42.805,6.029,4330,1995,192.977,59.019,13.291
2019-07-26T17:59:36,42.805,6.029,4330,1995,192.939,59.007,13.291
2019-07-26T18:02:36,42.805,6.029,4330,1995,192.990,59.023,13.291
2019-07-26T18:05:36,42.805,6.029,4330,1995,192.984,59.021,13.291
2019-07-26T18:08:36,42.805,6.029,4330,1995,192.943,59.008,13.290
2019-07-26T18:11:36,42.805,6.029,4330,1995,192.961,59.013,13.291
2019-07-26T18:14:36,42.805,6.029,4330,1995,192.953,59.011,13.290
2019-07-26T18:17:36,42.805,6.029,4330,1995,192.908,58.997,13.290
2019-07-26T18:20:36,42.805,6.029,4330,1995,192.900,58.994,13.290
2019-07-26T18:23:36,42.805,6.029,4330,1995,192.873,58.987,13.291
2019-07-26T18:26:36,42.805,6.029,4330,1995,192.889,58.990,13.290
2019-07-26T18:29:36,42.805,6.029,4330,1995,192.927,59.002,13.290
2019-07-26T18:32:36,42.805,6.029,4330,1995,192.957,59.011,13.289
2019-07-26T18:35:36,42.805,6.029,4330,1995,192.873,58.986,13.290